Volver al catálogo

STARLINK-36377

ActivoComunicacionesSSO
NORAD 67812·PAYLOAD·🇺🇸 United States

Lanzado Feb 15, 2026 desde Vandenberg Space Force Base

Loading…

Próximos Pases (próximas 24 horas)

TLE

ActualizadoSource: CelesTrak SupGP

Época: Sep 14, 2026, 22:41 UTC

1 67812C 26032R   26257.94562500  .00078135  00000+0  24260-2 0  2576
2 67812  97.2855  84.4809 0001602  93.0056  45.5728 15.33392670    18

Sigue STARLINK-36377 en tiempo real con AllMySat

Download on the App Store